Weather Roundup
Issued by NWS Springfield, MO

Home | Current Version | Previous Version | Text Only | Print | Product List | Glossary On
Versions: 1 2 3 4 5 6 7 8 9 10 11 12 13 14 15 16 17 18 19 20 21 22 23 24 25 26 27 28 29 30 31 32 33 34 35 36 37 38 39 40 41 42 43 44 45 46 47 48 49 50
000
NZUS99 KSGF 221207
HRRSGF

HOURLY WEATHER
NATIONAL WEATHER SERVICE SPRINGFIELD MO
700 AM CDT MON SEP 22 2014

......SGF CWA......

CITY           SKY/WX    TMP DP  RH WIND       PRES   REMARKS
SPRINGFIELD    CLEAR     50  46  86 CALM      30.27R
6HR MIN TEMP:  49; 6HR MAX TEMP:  58;

JOPLIN         CLEAR     48  48 100 NE3       30.29R
6HR MIN TEMP:  48; 6HR MAX TEMP:  59;

WEST PLAINS    CLEAR     50  46  86 N3        30.28R
6HR MIN TEMP:  49; 6HR MAX TEMP:  57;

ROLLA          CLEAR     48  46  93 NW3       30.26R
6HR MIN TEMP:  47; 6HR MAX TEMP:  54;

OSAGE BEACH    CLEAR     48  45  87 CALM      30.29R
BRANSON        CLEAR     48  46  93 CALM      30.28R

......SURROUNDING SGF CWA......

CITY           SKY/WX    TMP DP  RH WIND       PRES   REMARKS
CHANUTE        CLEAR     49  48  97 NW3       30.30R
PARSONS        CLEAR     49  47  93 CALM      30.30R
EMPORIA        CLEAR     50  47  89 CALM      30.31R
GROVE OK       CLEAR     52  52 100 CALM      30.28R
ROGERS AR      CLEAR     51  48  89 N3        30.28R
SILOAM SPRINGS CLEAR     54  45  71 CALM      30.28R
HARRISON AR    CLEAR     50  48  93 N5        30.27R
NEAR YELLVILLE CLEAR     54  46  76 CALM      30.26R

......KANSAS AND MISSOURI......

CITY           SKY/WX    TMP DP  RH WIND       PRES   REMARKS
KANSAS CTY INT CLEAR     48  47  96 N5        30.31R
DOWNTOWN KC    CLEAR     52  49  89 CALM      30.31R
COLUMBIA       CLEAR     48  47  96 NW6       30.29R
SEDALIA        CLEAR     49  47  93 NW6       30.30R
ST JOSEPH      CLEAR     46  44  93 CALM      30.31S
ST LOUIS       CLEAR     53  49  86 NW5       30.26R
SPIRIT OF STL  CLEAR     48  47  96 CALM      30.26R
KIRKSVILLE     CLEAR     45  43  93 W5        30.31R FOG
WICHITA        CLEAR     56  46  69 CALM      30.31R
TOPEKA         CLEAR     46  46 100 CALM      30.32R
OLATHE         CLEAR     52  48  86 N3        30.30R

......TENNESSEE......

CITY           SKY/WX    TMP DP  RH WIND       PRES   REMARKS
MEMPHIS        CLEAR     61  51  70 N8        30.19R
NASHVILLE      CLEAR     56  50  80 N5        30.17R

......ARKANSAS.......

CITY           SKY/WX    TMP DP  RH WIND       PRES   REMARKS
FAYETTEVILLE   CLEAR     46  46 100 CALM      30.27R
FT SMITH       CLEAR     57  53  86 CALM      30.24R
LITTLE ROCK    CLEAR     61  49  64 N9        30.21R

......OKLAHOMA.......

CITY           SKY/WX    TMP DP  RH WIND       PRES   REMARKS
TULSA          CLEAR     52  50  93 NW5       30.28R
PONCA CITY     CLEAR     49  46  90 N3        30.29R
MCALESTER      CLEAR     54  51  90 CALM      30.24R
OKLAHOMA CITY  CLEAR     59  49  69 NE8       30.27R

......IOWA............

CITY           SKY/WX    TMP DP  RH WIND       PRES   REMARKS
DES MOINES     CLEAR     49  46  90 NW3       30.31R
QUAD CITIES    CLEAR     42  40  92 CALM      30.28R

......ILLINOIS........

CITY           SKY/WX    TMP DP  RH WIND       PRES   REMARKS
QUINCY         CLEAR     47  45  93 N6        30.27R
CHICAGO        PTCLDY    47  40  76 NW9       30.25R



USA.gov is the U.S. government's official web portal to all federal, state and local government web resources and services.